Location: New Frontier Mobile Home Park
(32.8448°N, 116.9675°W)
Time: 22:32:11
(UTC+00:00)

Meteor 1-23 Rocket - Pass Details

Date: 14 July 2020
Orbit: 838 x 887 km, 81.3° (Epoch: 05 August)

Event Time Altitude Azimuth Distance (km) Brightness Sun altitude
Rises 11:00:53 0° 345° (NNW) 3,466 7.8 -19.6°
Reaches altitude 10° 11:03:22 10° 340° (NNW) 2,531 7.0 -19.2°
Maximum altitude 11:08:54 50° 267° (W) 1,108 4.5 -18.4°
Enters shadow 11:11:45 27° 206° (SSW) 1,613 5.1 -18.0°
